When you browse on this site, cookies collect data to enhance your experience and personalize the content and advertising you see.
Visit our Privacy Policy to learn more. By continuing to use the site, you agree to this use of cookies and data.
  • In Latvia
  • List of Countries
  • For 7 days
  • Water Temperature
  • Weather Map
  • Weather Widgets
  • user-avatar
    Login

    Hourly Weather Vitebsk

    Today, 4 June, Thursday

    Time Temperature Precipitation Wind Pressure Humidity
    00:00 +8°C° 0 mm 2 mps 739 mmHg 96%
    01:00 +7°C° 0 mm 2 mps 739 mmHg 97%
    02:00 +7°C° 0 mm 2 mps 739 mmHg 97%
    03:00 +8°C° 0 mm 1 mps 738 mmHg 97%
    04:00 +9°C° 0 mm 1 mps 738 mmHg 97%
    05:00 +9°C° 0 mm 1 mps 738 mmHg 97%
    06:00 +11°C° 0 mm 1 mps 737 mmHg 94%
    07:00 +12°C° 0 mm 1 mps 737 mmHg 90%
    08:00 +14°C° 0 mm 1 mps 737 mmHg 86%
    09:00 +15°C° 0.2 mm 1 mps 737 mmHg 78%
    10:00 +18°C° 0.2 mm 1 mps 736 mmHg 71%
    11:00 +17°C° 0.2 mm 0 mps 736 mmHg 63%
    12:00 +19°C° 0.7 mm 1 mps 736 mmHg 67%
    13:00 +18°C° 0.7 mm 2 mps 736 mmHg 72%
    14:00 +17°C° 0.7 mm 3 mps 736 mmHg 76%
    15:00 +17°C° 0.6 mm 3 mps 736 mmHg 76%
    16:00 +17°C° 0.6 mm 3 mps 735 mmHg 76%
    17:00 +17°C° 0.6 mm 3 mps 735 mmHg 76%
    18:00 +16°C° 0.1 mm 3 mps 735 mmHg 80%
    19:00 +13°C° 0.1 mm 3 mps 735 mmHg 84%
    20:00 +13°C° 0.1 mm 2 mps 735 mmHg 88%
    21:00 +12°C° 0 mm 2 mps 735 mmHg 90%
    22:00 +10°C° 0 mm 2 mps 735 mmHg 92%
    23:00 +9°C° 0 mm 2 mps 736 mmHg 94%

    Tomorrow, 5 June, Friday

    Time Temperature Precipitation Wind Pressure Humidity
    00:00 +8°C° 0 mm 2 mps 736 mmHg 95%
    01:00 +8°C° 0 mm 2 mps 736 mmHg 95%
    02:00 +8°C° 0 mm 2 mps 736 mmHg 95%
    03:00 +8°C° 0 mm 2 mps 736 mmHg 95%
    04:00 +8°C° 0 mm 2 mps 736 mmHg 95%
    05:00 +8°C° 0 mm 2 mps 736 mmHg 95%
    06:00 +10°C° 0 mm 2 mps 736 mmHg 90%
    07:00 +13°C° 0 mm 2 mps 736 mmHg 84%
    08:00 +14°C° 0 mm 3 mps 737 mmHg 78%
    09:00 +16°C° 0 mm 3 mps 737 mmHg 73%
    10:00 +17°C° 0 mm 3 mps 737 mmHg 68%
    11:00 +19°C° 0 mm 4 mps 737 mmHg 63%
    12:00 +19°C° 0.1 mm 4 mps 737 mmHg 62%
    13:00 +19°C° 0.1 mm 3 mps 737 mmHg 61%
    14:00 +20°C° 0.1 mm 3 mps 737 mmHg 60%
    15:00 +20°C° 0 mm 3 mps 737 mmHg 61%
    16:00 +20°C° 0 mm 3 mps 737 mmHg 62%
    17:00 +20°C° 0 mm 3 mps 737 mmHg 63%
    18:00 +18°C° 0 mm 3 mps 737 mmHg 71%
    19:00 +17°C° 0 mm 3 mps 737 mmHg 78%
    20:00 +14°C° 0 mm 3 mps 737 mmHg 86%
    21:00 +14°C° 0 mm 3 mps 738 mmHg 87%
    22:00 +14°C° 0 mm 4 mps 738 mmHg 89%
    23:00 +13°C° 0 mm 4 mps 738 mmHg 91%

    Day after tomorrow, 6 June, Saturday

    Time Temperature Precipitation Wind Pressure Humidity
    00:00 +13°C° 0 mm 4 mps 738 mmHg 93%
    01:00 +14°C° 0 mm 4 mps 738 mmHg 95%
    02:00 +14°C° 0 mm 4 mps 738 mmHg 96%
    03:00 +14°C° 0 mm 4 mps 738 mmHg 96%
    04:00 +15°C° 0 mm 4 mps 738 mmHg 96%
    05:00 +15°C° 0 mm 4 mps 738 mmHg 95%
    06:00 +17°C° 0 mm 4 mps 738 mmHg 91%
    07:00 +18°C° 0 mm 4 mps 739 mmHg 88%
    08:00 +19°C° 0 mm 4 mps 739 mmHg 84%
    09:00 +20°C° 0.1 mm 5 mps 739 mmHg 82%
    10:00 +20°C° 0.1 mm 5 mps 740 mmHg 81%
    11:00 +21°C° 0.1 mm 5 mps 740 mmHg 79%
    12:00 +21°C° 0.4 mm 6 mps 740 mmHg 81%
    13:00 +20°C° 0.4 mm 6 mps 741 mmHg 83%
    14:00 +20°C° 0.4 mm 6 mps 741 mmHg 85%
    15:00 +21°C° 0.4 mm 5 mps 741 mmHg 84%
    16:00 +21°C° 0.4 mm 5 mps 741 mmHg 83%
    17:00 +22°C° 0.4 mm 5 mps 741 mmHg 82%
    18:00 +20°C° 0.3 mm 4 mps 742 mmHg 85%
    19:00 +19°C° 0.3 mm 3 mps 742 mmHg 88%
    20:00 +18°C° 0.3 mm 3 mps 743 mmHg 91%
    21:00 +17°C° 0 mm 2 mps 743 mmHg 92%
    22:00 +16°C° 0 mm 2 mps 744 mmHg 93%
    23:00 +15°C° 0 mm 2 mps 744 mmHg 94%

    7 June, Sunday

    Time Temperature Precipitation Wind Pressure Humidity
    00:00 +15°C° 0 mm 1 mps 745 mmHg 93%
    01:00 +14°C° 0 mm 1 mps 745 mmHg 92%
    02:00 +14°C° 0 mm 1 mps 745 mmHg 92%
    03:00 +14°C° 0 mm 1 mps 746 mmHg 91%
    04:00 +14°C° 0 mm 1 mps 746 mmHg 91%
    05:00 +15°C° 0 mm 1 mps 746 mmHg 91%
    06:00 +16°C° 0 mm 2 mps 746 mmHg 88%
    07:00 +18°C° 0 mm 2 mps 746 mmHg 85%
    08:00 +20°C° 0 mm 2 mps 747 mmHg 82%
    09:00 +21°C° 0 mm 3 mps 747 mmHg 78%
    10:00 +22°C° 0 mm 3 mps 747 mmHg 74%
    11:00 +24°C° 0 mm 3 mps 747 mmHg 70%
    12:00 +24°C° 0.5 mm 3 mps 746 mmHg 75%
    13:00 +22°C° 0.5 mm 3 mps 746 mmHg 80%
    14:00 +22°C° 0.5 mm 3 mps 746 mmHg 85%
    15:00 +22°C° 0.5 mm 3 mps 746 mmHg 84%
    16:00 +23°C° 0.5 mm 4 mps 746 mmHg 83%
    17:00 +23°C° 0.5 mm 4 mps 745 mmHg 81%
    18:00 +22°C° 0.2 mm 4 mps 745 mmHg 84%
    19:00 +21°C° 0.2 mm 4 mps 745 mmHg 87%
    20:00 +20°C° 0.2 mm 3 mps 745 mmHg 90%
    21:00 +20°C° 0 mm 4 mps 745 mmHg 91%
    22:00 +19°C° 0 mm 4 mps 746 mmHg 92%
    23:00 +18°C° 0 mm 4 mps 746 mmHg 93%

    8 June, Monday

    Time Temperature Precipitation Wind Pressure Humidity
    00:00 +18°C° 0 mm 4 mps 746 mmHg 93%
    01:00 +18°C° 0 mm 4 mps 746 mmHg 94%
    02:00 +17°C° 0 mm 3 mps 746 mmHg 95%
    03:00 +17°C° 0 mm 3 mps 746 mmHg 94%
    04:00 +17°C° 0 mm 3 mps 746 mmHg 94%
    05:00 +17°C° 0 mm 3 mps 746 mmHg 94%
    06:00 +19°C° 0 mm 4 mps 746 mmHg 90%
    07:00 +21°C° 0 mm 4 mps 746 mmHg 85%
    08:00 +22°C° 0 mm 4 mps 746 mmHg 81%
    09:00 +23°C° 0.1 mm 4 mps 746 mmHg 75%
    10:00 +26°C° 0.1 mm 4 mps 746 mmHg 69%
    11:00 +27°C° 0.1 mm 4 mps 747 mmHg 63%
    12:00 +27°C° 0.2 mm 4 mps 746 mmHg 63%
    13:00 +27°C° 0.2 mm 4 mps 746 mmHg 62%
    14:00 +27°C° 0.2 mm 4 mps 746 mmHg 62%
    15:00 +27°C° 0.3 mm 4 mps 746 mmHg 65%
    16:00 +27°C° 0.3 mm 4 mps 746 mmHg 68%
    17:00 +26°C° 0.3 mm 3 mps 746 mmHg 71%
    18:00 +25°C° 0.2 mm 3 mps 746 mmHg 77%
    19:00 +22°C° 0.2 mm 3 mps 746 mmHg 82%
    20:00 +21°C° 0.2 mm 2 mps 746 mmHg 88%
    21:00 +20°C° 0 mm 3 mps 746 mmHg 89%
    22:00 +20°C° 0 mm 3 mps 746 mmHg 91%
    23:00 +19°C° 0 mm 3 mps 746 mmHg 93%

    9 June, Tuesday

    Time Temperature Precipitation Wind Pressure Humidity
    00:00 +19°C° 0.1 mm 3 mps 746 mmHg 93%
    01:00 +18°C° 0.1 mm 3 mps 746 mmHg 94%
    02:00 +18°C° 0.1 mm 3 mps 746 mmHg 95%
    03:00 +18°C° 0 mm 4 mps 746 mmHg 94%
    04:00 +19°C° 0 mm 4 mps 746 mmHg 94%
    05:00 +19°C° 0 mm 4 mps 746 mmHg 93%
    06:00 +20°C° 0 mm 4 mps 746 mmHg 88%
    07:00 +22°C° 0 mm 4 mps 747 mmHg 84%
    08:00 +23°C° 0 mm 5 mps 747 mmHg 79%
    09:00 +26°C° 0.3 mm 5 mps 747 mmHg 73%
    10:00 +27°C° 0.3 mm 6 mps 747 mmHg 68%
    11:00 +28°C° 0.3 mm 6 mps 747 mmHg 62%
    12:00 +28°C° 0.7 mm 6 mps 747 mmHg 64%
    13:00 +28°C° 0.7 mm 6 mps 747 mmHg 65%
    14:00 +28°C° 0.7 mm 5 mps 747 mmHg 67%
    15:00 +28°C° 0.8 mm 5 mps 747 mmHg 70%
    16:00 +27°C° 0.8 mm 4 mps 747 mmHg 73%
    17:00 +27°C° 0.8 mm 3 mps 747 mmHg 76%
    18:00 +26°C° 0.6 mm 3 mps 747 mmHg 80%
    19:00 +24°C° 0.6 mm 3 mps 747 mmHg 85%
    20:00 +22°C° 0.6 mm 3 mps 747 mmHg 89%
    21:00 +21°C° 0.1 mm 3 mps 747 mmHg 91%
    22:00 +21°C° 0.1 mm 3 mps 747 mmHg 93%
    23:00 +20°C° 0.1 mm 3 mps 747 mmHg 94%
    Show more